Location: Old Broadwell Mill Observatory
(33.8015°N, 85.8137°W)
Time: 10:26:21
(UTC-05:00)

Amateur Radio Satellites - All Passes

Search period start: 23 October 2017 09:56
Search period end: 24 October 2017 09:56
Location: Old Broadwell Mill Observatory, 33.8015°N, 85.8137°W

Satellite Date Start Highest point End Downlink Frequencies (MHz)
Time Altitude Azimuth
EO-88 23 Oct 10:00:06 10:02:57 21° 96° (E) 10:05:47 145.990 - 145.960
RS-15 23 Oct 10:00:26 10:12:17 86° 244° (WSW) 10:23:28 29.354- 29.394
DELFI C3 23 Oct 10:04:02 10:07:57 56° 100° (E) 10:11:51 145.870
AO-73 23 Oct 10:04:10 10:07:07 18° 291° (WNW) 10:10:02 145.935
Max Valier Satellite 23 Oct 10:16:55 10:20:32 56° 100° (E) 10:24:05 145.860
AIST 2D 23 Oct 10:38:06 10:40:52 22° 72° (ENE) 10:43:38 435.315
NO-84 23 Oct 10:39:34 10:42:56 34° 235° (SW) 10:46:02 435.350 FM
YUBILEINY 23 Oct 10:50:13 10:57:13 27° 288° (WNW) 11:04:18 435.215
UNISAT 6 23 Oct 11:10:33 11:12:40 13° 268° (W) 11:14:49 437.425
PRISM 23 Oct 11:12:33 11:15:45 23° 264° (W) 11:19:00 437.425
SRMSAT 23 Oct 11:15:09 11:18:54 17° 189° (S) 11:22:39 437.500
BEESAT 2 23 Oct 11:21:40 11:25:10 30° 112° (ESE) 11:28:43 435.950
AO-85 23 Oct 11:22:41 11:25:15 17° 110° (ESE) 11:27:49 145.980
EO-79 23 Oct 11:23:25 11:27:13 32° 72° (ENE) 11:31:02 145.935-145.965
POLYITAN 1 23 Oct 11:28:57 11:32:54 38° 73° (ENE) 11:36:53 437.675
BEESAT 3 23 Oct 11:29:58 11:33:50 50° 301° (WNW) 11:37:45 437.485
EO-88 23 Oct 11:33:58 11:36:24 17° 289° (WNW) 11:38:50 145.990 - 145.960
NANOSAT C BR1 23 Oct 11:48:55 11:53:05 59° 75° (ENE) 11:57:18 145.865
QB50P2 23 Oct 11:49:09 11:53:25 77° 77° (ENE) 11:57:42 145.880/145.840
ESTCUBE 1 23 Oct 11:53:48 11:58:09 49° 100° (E) 12:02:30 437.505/2401.250
BUGSAT 1 23 Oct 11:54:18 11:56:17 13° 67° (ENE) 11:58:17 437.445
SPROUT 23 Oct 11:57:02 11:57:34 10° 92° (E) 11:58:05 437.525
DUCHIFAT 1 23 Oct 11:57:40 12:01:52 65° 76° (ENE) 12:06:06 145.980
LO-87 23 Oct 12:11:35 12:15:07 50° 284° (WNW) 12:18:36 145.935 - 145.965
AIST 2D 23 Oct 12:11:50 12:13:58 15° 265° (W) 12:16:06 435.315
RS-15 23 Oct 12:16:27 12:22:47 17° 262° (W) 12:28:59 29.354- 29.394
Gurwin Techsat 1B 23 Oct 12:55:24 12:59:41 25° 68° (ENE) 13:03:57 435.225
BEESAT 2 23 Oct 13:00:00 13:02:55 19° 308° (NW) 13:05:51 435.950
EO-79 23 Oct 13:00:15 13:03:00 17° 266° (W) 13:05:46 145.935-145.965
AO-85 23 Oct 13:02:00 13:05:22 28° 305° (NW) 13:08:47 145.980
VELOX 1 23 Oct 13:04:44 13:09:02 48° 100° (E) 13:13:20 145.980
POLYITAN 1 23 Oct 13:06:26 13:08:47 14° 267° (W) 13:11:07 437.675
BUGSAT 1 23 Oct 13:27:15 13:31:12 42° 261° (W) 13:35:14 437.445
SPROUT 23 Oct 13:29:31 13:33:41 52° 285° (WNW) 13:37:50 437.525
ESTCUBE 1 23 Oct 13:32:29 13:34:28 13° 294° (WNW) 13:36:27 437.505/2401.250
Oscar 19 23 Oct 13:34:47 13:39:58 88° 260° (W) 13:45:08 437.125/150
50 SAT 23 Oct 13:36:57 13:39:45 25° 98° (E) 13:42:32 437.505
M-CUBED/EXP-1 PRIME 23 Oct 13:57:53 14:01:02 35° 256° (WSW) 14:04:05 437.505
AO-7 23 Oct 13:58:32 14:04:51 25° 59° (ENE) 14:11:09 .
DX 1 23 Oct 13:59:57 14:04:10 45° 100° (E) 14:08:21 434.975-435.025
UKube-1 23 Oct 14:16:40 14:20:47 43° 100° (E) 14:24:53 .
ITAMSAT 1 23 Oct 14:18:23 14:20:37 13° 63° (ENE) 14:22:51 435.822/435.867
SO-50 23 Oct 14:34:16 14:38:16 28° 54° (NE) 14:42:17 436.795
Gurwin Techsat 1B 23 Oct 14:34:39 14:39:24 33° 262° (W) 14:44:11 435.225
VELOX 1 23 Oct 14:42:57 14:45:01 13° 294° (WNW) 14:47:05 145.980
nSIGHT-1 23 Oct 14:45:34 14:47:29 15° 31° (NNE) 14:49:23 .
50 SAT 23 Oct 15:10:27 15:11:44 12° 291° (WNW) 15:13:01 437.505
ITUPSAT 1 23 Oct 15:10:29 15:13:57 20° 95° (E) 15:17:21 437.325
BEESAT 23 Oct 15:23:03 15:27:08 28° 97° (E) 15:31:10 436.000
ISS 23 Oct 15:26:44 15:29:39 29° 37° (NE) 15:32:33 437.550
DX 1 23 Oct 15:37:46 15:39:54 13° 294° (WNW) 15:42:02 434.975-435.025
MOZHAYETS 4 23 Oct 15:43:56 15:48:26 57° 100° (E) 15:52:54
AO-7 23 Oct 15:48:41 15:56:54 66° 256° (WSW) 16:05:09 .
UKube-1 23 Oct 15:54:11 15:56:22 14° 294° (WNW) 15:58:34 .
ITAMSAT 1 23 Oct 15:54:18 15:59:27 67° 258° (WSW) 16:04:38 435.822/435.867
CUBESAT XI-V 23 Oct 16:05:31 16:08:47 19° 95° (E) 16:12:04 437.345
SO-50 23 Oct 16:14:44 16:18:37 27° 248° (WSW) 16:22:31 436.795
nSIGHT-1 23 Oct 16:20:50 16:23:58 52° 226° (SW) 16:27:05 .
KKS-1 23 Oct 16:46:53 16:49:02 13° 93° (E) 16:51:12 437.445
ITUPSAT 1 23 Oct 16:47:28 16:51:47 35° 289° (WNW) 16:56:05 437.325
DOVE 4 23 Oct 16:52:24 16:56:25 49° 74° (ENE) 17:00:38 437.250
CUTE-I 23 Oct 16:53:19 16:55:10 12° 63° (ENE) 16:57:02 437.470
BEESAT 23 Oct 17:00:52 17:04:44 25° 291° (WNW) 17:08:34 436.000
ISS 23 Oct 17:03:29 17:05:58 20° 231° (SW) 17:08:27 437.550
PCSat 23 Oct 17:05:09 17:10:34 69° 63° (ENE) 17:15:56 145.827
XW-2B 23 Oct 17:08:40 17:10:30 13° 69° (ENE) 17:12:19 145.730 - 145.750
MOZHAYETS 4 23 Oct 17:23:31 17:25:01 12° 295° (WNW) 17:26:33
XW-2C 23 Oct 17:30:37 17:33:48 26° 73° (ENE) 17:36:59 145.795 - 145.815
CUBESAT XI-V 23 Oct 17:42:04 17:46:10 33° 288° (WNW) 17:50:16 437.345
HO-68 23 Oct 17:42:20 17:47:18 21° 61° (ENE) 17:52:17 435.675
KAITUO 1B 23 Oct 18:03:28 18:07:05 50° 76° (ENE) 18:10:40 145.475/437.950
CUTE 1.7 + AOD 2 23 Oct 18:06:25 18:08:47 15° 68° (ENE) 18:11:09 437.475
CUBEBUG 2 23 Oct 18:10:28 18:11:23 11° 65° (ENE) 18:12:19 437.445
NUDT-PHONESAT 23 Oct 18:11:21 18:15:02 63° 76° (ENE) 18:18:41 437.300
XW-2F 23 Oct 18:11:30 18:15:17 90° 323° (NW) 18:19:03 145.980 - 146.000
KKS-1 23 Oct 18:21:29 18:25:45 45° 287° (WNW) 18:30:00 437.445
LilacSat-2 23 Oct 18:24:44 18:28:27 49° 260° (W) 18:32:09 437.200
XW-2D 23 Oct 18:27:03 18:30:43 47° 261° (W) 18:34:22 145.860 - 145.880
CUTE-I 23 Oct 18:29:12 18:34:30 75° 257° (WSW) 18:39:51 437.470
DOVE 4 23 Oct 18:34:01 18:34:27 10° 269° (W) 18:34:52 437.250
UWE-3 23 Oct 18:39:34 18:41:36 13° 66° (ENE) 18:43:37 435.000/436.395/437.385
XW-2B 23 Oct 18:40:54 18:44:20 32° 262° (W) 18:47:46 145.730 - 145.750
STARS 23 Oct 18:43:34 18:47:58 66° 284° (WNW) 18:52:20 437.465
XW-2A 23 Oct 18:49:22 18:50:48 12° 70° (ENE) 18:52:14 145.665 - 145.685
PCSat 23 Oct 18:51:12 18:53:16 12° 257° (WSW) 18:55:21 145.827
XW-2C 23 Oct 19:05:34 19:07:56 16° 265° (W) 19:10:19 145.795 - 145.815
YUBILEINY 23 Oct 19:07:45 19:14:15 22° 70° (ENE) 19:20:43 435.215
AO-73 23 Oct 19:19:34 19:22:22 16° 68° (ENE) 19:25:09 145.935
HO-68 23 Oct 19:27:14 19:34:20 67° 257° (WSW) 19:41:30 435.675
SEEDS 23 Oct 19:39:48 19:43:56 65° 259° (WSW) 19:48:05 437.485
CUTE 1.7 + AOD 2 23 Oct 19:40:21 19:44:15 37° 262° (W) 19:48:11 437.475
ZACube-1 23 Oct 19:42:29 19:46:34 33° 72° (ENE) 19:50:40 437.345
CUBEBUG 2 23 Oct 19:42:40 19:47:18 69° 259° (W) 19:52:03 437.445
BEESAT 3 23 Oct 19:50:29 19:53:45 25° 54° (NE) 19:57:00 437.485
AAUSAT CUBESAT 2 23 Oct 19:52:13 19:56:17 70° 76° (ENE) 20:00:22 437.432
STRAND 1 23 Oct 20:01:29 20:06:38 65° 102° (ESE) 20:11:43 437.568
O/OREOS (USA 219) 23 Oct 20:11:11 20:15:41 61° 291° (WNW) 20:20:14 437.305
Oscar 11 23 Oct 20:12:35 20:16:39 41° 74° (ENE) 20:20:43 .
UWE-3 23 Oct 20:12:57 20:17:29 55° 260° (W) 20:22:06 435.000/436.395/437.385
XW-2A 23 Oct 20:20:16 20:23:12 27° 263° (W) 20:26:08 145.665 - 145.685
DELFI C3 23 Oct 20:46:15 20:48:56 18° 70° (ENE) 20:51:37 145.870
FO-29 23 Oct 20:48:28 20:55:11 38° 98° (E) 21:02:17 435.910
Max Valier Satellite 23 Oct 20:53:03 20:55:07 14° 69° (ENE) 20:57:11 145.860
AO-73 23 Oct 20:53:55 20:58:12 40° 262° (W) 21:02:31 145.935
YUBILEINY 23 Oct 21:02:57 21:11:40 68° 268° (W) 21:20:23 435.215
ZACube-1 23 Oct 21:19:35 21:22:50 19° 266° (W) 21:26:06 437.345
BEESAT 2 23 Oct 21:19:41 21:23:44 74° 62° (ENE) 21:27:40 435.950
BEESAT 3 23 Oct 21:28:10 21:31:08 21° 249° (WSW) 21:34:03 437.485
UNISAT 6 23 Oct 21:28:34 21:30:57 14° 93° (E) 21:33:17 437.425
AO-85 23 Oct 21:34:58 21:39:38 71° 61° (ENE) 21:44:39 145.980
TIGRISAT 23 Oct 21:41:37 21:44:45 18° 94° (E) 21:47:50 435.000
STRAND 1 23 Oct 21:42:56 21:45:10 13° 296° (WNW) 21:47:25 437.568
Oscar 11 23 Oct 21:50:50 21:52:55 13° 267° (W) 21:54:59 .
EO-88 23 Oct 22:06:09 22:09:47 78° 258° (WSW) 22:13:26 145.990 - 145.960
RS-15 23 Oct 22:09:35 22:17:35 21° 100° (E) 22:25:37 29.354- 29.394
DELFI C3 23 Oct 22:20:14 22:23:27 25° 264° (W) 22:26:42 145.870
Max Valier Satellite 23 Oct 22:25:24 22:28:39 28° 263° (W) 22:31:54 145.860
FO-29 23 Oct 22:33:28 22:40:01 39° 290° (WNW) 22:47:02 435.910
LO-87 23 Oct 22:43:31 22:46:40 30° 73° (ENE) 22:49:52 145.935 - 145.965
ESTCUBE 1 23 Oct 22:49:38 22:53:27 28° 71° (ENE) 22:57:16 437.505/2401.250
PRISM 23 Oct 22:56:22 23:00:28 60° 101° (E) 23:04:33 437.425
UNISAT 6 23 Oct 23:03:32 23:07:50 42° 287° (WNW) 23:12:01 437.425
TIGRISAT 23 Oct 23:17:25 23:21:28 32° 288° (WNW) 23:25:25 435.000
AO-85 23 Oct 23:18:24 23:19:36 11° 252° (WSW) 23:20:49 145.980
AIST 2D 23 Oct 23:38:51 23:42:12 45° 99° (E) 23:45:32 435.315
NANOSAT C BR1 23 Oct 23:38:54 23:40:43 13° 93° (E) 23:42:33 145.865
QB50P2 23 Oct 23:39:00 23:41:45 17° 94° (E) 23:44:27 145.880/145.840
DUCHIFAT 1 23 Oct 23:47:03 23:49:12 14° 93° (E) 23:51:20 145.980
VELOX 1 23 Oct 23:58:24 00:02:00 26° 70° (ENE) 00:05:38 145.980
NO-84 24 Oct 00:15:11 00:17:14 13° 120° (ESE) 00:19:19 435.350 FM
RS-15 24 Oct 00:16:10 00:28:26 89° 297° (WNW) 00:40:51 29.354- 29.394
SPROUT 24 Oct 00:18:14 00:22:28 68° 76° (ENE) 00:26:44 437.525
LO-87 24 Oct 00:18:38 00:20:07 12° 267° (W) 00:21:37 145.935 - 145.965
ESTCUBE 1 24 Oct 00:26:47 00:30:11 21° 264° (W) 00:33:36 437.505/2401.250
EO-79 24 Oct 00:46:52 00:51:07 77° 283° (WNW) 00:55:19 145.935-145.965
DX 1 24 Oct 00:52:02 00:55:29 24° 70° (ENE) 00:58:58 434.975-435.025
POLYITAN 1 24 Oct 00:52:48 00:57:01 65° 284° (WNW) 01:01:10 437.675
UKube-1 24 Oct 01:07:43 01:11:01 22° 69° (ENE) 01:14:21 .
NANOSAT C BR1 24 Oct 01:12:36 01:16:35 41° 286° (WNW) 01:20:32 145.865
BUGSAT 1 24 Oct 01:12:45 01:16:35 34° 98° (E) 01:20:22 437.445
QB50P2 24 Oct 01:13:46 01:17:32 32° 288° (WNW) 01:21:17 145.880/145.840
Gurwin Techsat 1B 24 Oct 01:16:48 01:19:10 13° 92° (E) 01:21:31 435.225
DUCHIFAT 1 24 Oct 01:21:04 01:24:58 38° 287° (WNW) 01:28:51 145.980
50 SAT 24 Oct 01:32:52 01:36:06 77° 260° (W) 01:39:21 437.505
VELOX 1 24 Oct 01:34:57 01:38:21 22° 264° (W) 01:41:47 145.980
M-CUBED/EXP-1 PRIME 24 Oct 01:39:25 01:41:46 15° 101° (E) 01:44:12 437.505
NO-84 24 Oct 01:49:58 01:54:12 63° 315° (NW) 01:58:27 435.350 FM
Oscar 19 24 Oct 01:50:27 01:55:20 44° 99° (E) 02:00:12 437.125/150
ITUPSAT 1 24 Oct 02:14:08 02:16:59 16° 66° (ENE) 02:19:50 437.325
BEESAT 24 Oct 02:25:58 02:29:35 22° 68° (ENE) 02:33:11 436.000
DX 1 24 Oct 02:28:04 02:31:32 23° 263° (W) 02:35:01 434.975-435.025
RS-15 24 Oct 02:32:51 02:42:45 27° 321° (NW) 02:52:40 29.354- 29.394
MOZHAYETS 4 24 Oct 02:41:50 02:46:00 34° 72° (ENE) 02:50:11
UKube-1 24 Oct 02:43:20 02:46:52 25° 263° (W) 02:50:26 .
BUGSAT 1 24 Oct 02:49:06 02:51:35 16° 292° (WNW) 02:54:04 437.445
Gurwin Techsat 1B 24 Oct 02:54:12 02:59:27 62° 286° (WNW) 03:04:41 435.225
CUBESAT XI-V 24 Oct 03:06:24 03:08:22 13° 66° (ENE) 03:10:21 437.345
JUGNU 24 Oct 03:08:11 03:09:23 11° 164° (SSE) 03:10:37 437.505
M-CUBED/EXP-1 PRIME 24 Oct 03:12:50 03:16:08 30° 291° (WNW) 03:19:38 437.505
Oscar 19 24 Oct 03:30:50 03:34:15 18° 294° (WNW) 03:37:41 437.125/150
NO-84 24 Oct 03:30:56 03:32:19 11° 330° (NNW) 03:33:42 435.350 FM
ITUPSAT 1 24 Oct 03:49:46 03:54:22 46° 260° (W) 03:59:00 437.325
AO-7 24 Oct 03:54:38 04:02:45 55° 103° (ESE) 04:10:51 .
BEESAT 24 Oct 04:02:49 04:07:06 32° 262° (W) 04:11:24 436.000
ITAMSAT 1 24 Oct 04:11:03 04:16:14 60° 101° (ESE) 04:21:22 435.822/435.867
MOZHAYETS 4 24 Oct 04:19:59 04:23:10 18° 265° (W) 04:26:24
CUBESAT XI-V 24 Oct 04:40:43 04:45:14 53° 260° (W) 04:49:44 437.345
SO-50 24 Oct 04:45:29 04:48:47 20° 110° (ESE) 04:52:06 436.795
O/OREOS (USA 219) 24 Oct 04:48:19 04:49:51 11° 57° (ENE) 04:51:22 437.305
JUGNU 24 Oct 04:53:44 04:57:42 18° 173° (S) 05:01:38 437.505
DOVE 4 24 Oct 04:54:44 04:58:44 22° 95° (E) 05:02:46 437.250
RS-15 24 Oct 04:57:51 05:01:46 12° 356° (N) 05:05:39 29.354- 29.394
KKS-1 24 Oct 05:15:01 05:19:26 81° 258° (WSW) 05:23:54 437.445
STARS 24 Oct 05:35:47 05:40:06 64° 75° (ENE) 05:44:29 437.465
AO-7 24 Oct 05:48:11 05:55:01 30° 299° (WNW) 06:01:52 .
XW-2F 24 Oct 05:49:16 05:50:34 11° 93° (E) 05:51:53 145.980 - 146.000
ITAMSAT 1 24 Oct 05:52:22 05:55:07 15° 296° (WNW) 05:57:52 435.822/435.867
PCSat 24 Oct 06:02:09 06:05:08 15° 104° (ESE) 06:08:09 145.827
LilacSat-2 24 Oct 06:02:10 06:05:04 21° 96° (E) 06:07:57 437.200
XW-2D 24 Oct 06:03:42 06:06:34 21° 96° (E) 06:09:26 145.860 - 145.880
XW-2B 24 Oct 06:16:56 06:20:15 30° 98° (E) 06:23:33 145.730 - 145.750
SO-50 24 Oct 06:24:58 06:28:59 33° 304° (NW) 06:33:03 436.795
O/OREOS (USA 219) 24 Oct 06:25:07 06:29:39 61° 254° (WSW) 06:34:08 437.305
DOVE 4 24 Oct 06:31:41 06:36:23 37° 287° (WNW) 06:41:11 437.250
XW-2C 24 Oct 06:40:07 06:43:50 67° 101° (E) 06:47:32 145.795 - 145.815
JUGNU 24 Oct 06:41:50 06:46:02 20° 183° (S) 06:50:14 437.505
CUTE-I 24 Oct 06:50:10 06:55:30 61° 101° (ESE) 07:00:48 437.470
HO-68 24 Oct 06:59:49 07:05:59 30° 97° (E) 07:12:06 435.675
KAITUO 1B 24 Oct 07:11:51 07:15:29 61° 284° (WNW) 07:19:06 145.475/437.950
RS-15 24 Oct 07:12:39 07:21:21 22° 34° (NNE) 07:29:42 29.354- 29.394
STRAND 1 24 Oct 07:13:18 07:18:21 62° 74° (ENE) 07:23:26 437.568
NUDT-PHONESAT 24 Oct 07:18:50 07:22:23 50° 284° (WNW) 07:25:54 437.300
nSIGHT-1 24 Oct 07:20:00 07:22:43 26° 130° (SE) 07:25:26 .
XW-2F 24 Oct 07:21:23 07:24:45 33° 286° (WNW) 07:28:07 145.980 - 146.000
SRMSAT 24 Oct 07:25:13 07:28:55 17° 170° (S) 07:32:36 437.500
SEEDS 24 Oct 07:27:39 07:31:10 26° 96° (E) 07:34:41 437.485
CUTE 1.7 + AOD 2 24 Oct 07:28:34 07:32:39 47° 99° (E) 07:36:42 437.475
LilacSat-2 24 Oct 07:36:27 07:39:11 19° 289° (WNW) 07:41:54 437.200
XW-2D 24 Oct 07:37:54 07:40:35 19° 289° (WNW) 07:43:16 145.860 - 145.880
CUBEBUG 2 24 Oct 07:37:54 07:42:01 33° 97° (E) 07:45:59 437.445
AAUSAT CUBESAT 2 24 Oct 07:39:25 07:41:40 14° 94° (E) 07:43:55 437.432
PCSat 24 Oct 07:42:39 07:47:58 58° 298° (WNW) 07:53:19 145.827
XW-2A 24 Oct 07:45:37 07:48:07 20° 96° (E) 07:50:36 145.665 - 145.685
XW-2B 24 Oct 07:52:11 07:54:07 14° 291° (WNW) 07:56:02 145.730 - 145.750
ISS 24 Oct 08:03:22 08:06:35 78° 137° (SE) 08:09:50 437.550
YUBILEINY 24 Oct 08:03:57 08:10:59 29° 84° (E) 08:18:03 435.215
UWE-3 24 Oct 08:06:45 08:10:54 39° 98° (E) 08:14:54 435.000/436.395/437.385
NO-84 24 Oct 08:27:45 08:30:17 16° 34° (NE) 08:32:41 435.350 FM
JUGNU 24 Oct 08:31:18 08:34:21 14° 193° (SSW) 08:37:24 437.505
CUTE-I 24 Oct 08:32:04 08:34:57 15° 296° (WNW) 08:37:51 437.470
TIGRISAT 24 Oct 08:38:00 08:39:28 11° 65° (ENE) 08:40:56 435.000
FO-29 24 Oct 08:42:01 08:47:11 66° 74° (ENE) 08:52:46 435.910
AO-73 24 Oct 08:45:40 08:49:50 50° 99° (E) 08:53:52 145.935
HO-68 24 Oct 08:47:01 08:53:45 44° 292° (WNW) 09:00:27 435.675
STRAND 1 24 Oct 08:55:51 08:57:51 12° 268° (W) 08:59:53 437.568
nSIGHT-1 24 Oct 08:56:20 08:58:57 22° 325° (NW) 09:01:33 .
SEEDS 24 Oct 09:03:36 09:06:39 20° 290° (WNW) 09:09:42 437.485
CUTE 1.7 + AOD 2 24 Oct 09:06:30 09:08:00 12° 293° (WNW) 09:09:31 437.475
ZACube-1 24 Oct 09:10:24 09:14:41 68° 285° (WNW) 09:18:51 437.345
SRMSAT 24 Oct 09:13:09 09:17:24 21° 181° (S) 09:21:40 437.500
AAUSAT CUBESAT 2 24 Oct 09:13:25 09:17:11 35° 287° (WNW) 09:20:56 437.432
CUBEBUG 2 24 Oct 09:15:13 09:18:18 18° 292° (WNW) 09:21:20 437.445
XW-2A 24 Oct 09:18:36 09:20:37 15° 289° (WNW) 09:22:38 145.665 - 145.685
RS-15 24 Oct 09:24:22 09:36:15 75° 60° (ENE) 09:47:25 29.354- 29.394
BEESAT 3 24 Oct 09:39:12 09:39:29 10° 107° (ESE) 09:39:46 437.485
Oscar 11 24 Oct 09:39:18 09:43:29 52° 285° (WNW) 09:47:38 .
EO-88 24 Oct 09:40:32 09:41:40 11° 93° (E) 09:42:49 145.990 - 145.960
ISS 24 Oct 09:42:01 09:43:25 12° 331° (NNW) 09:44:49 437.550
PRISM 24 Oct 09:42:08 09:45:23 24° 71° (ENE) 09:48:40 437.425
UWE-3 24 Oct 09:44:27 09:46:56 15° 293° (WNW) 09:49:23 435.000/436.395/437.385
